Tracking 35331 objects as of 15-Sep-2026
HD Live streaming from Space Station
objects crossing your sky now

STARLINK-32883

Track STARLINK-32883 now!
10-day predictions
STARLINK-32883 is classified as:


NORAD ID: 62806
Int'l Code: 2025-018A
Launch date: January 24, 2025
Source: United States (US)
Launch site: AIR FORCE WESTERN TEST RANGE (AFWTR)
Your satellite tracking list
Your tracking list is empty




NASA's NSSDC Master Catalog

Two Line Element Set (TLE):
1 62806U 25018A   26257.97304616  .00026074  00000-0  77992-3 0  9992
2 62806  53.1578 147.2028 0000549  93.6337 266.4728 15.34409627 93116
Source of the keplerian elements: AFSPC